#timestamp,LO_Frequency,Hit,StdDev 
1650578415.7,286046998.1,N
1650578435.6,286046999.0,N
1650578455.4,286046999.6,N
1650578475.3,286047000.6,N
1650578495.1,286046998.1,N
1650578496.0,286046998.1,N
1650578515.8,286047001.0,N
1650578535.7,286046999.5,N
1650578555.5,286046997.4,N
1650578575.3,286046997.8,N
1650578595.2,286046999.6,N
1650578615.0,286046999.0,N
1650578615.9,286046999.0,N
1650578635.8,286046999.0,N
1650578655.6,286046999.4,N
1650578675.4,286047000.0,N
1650578695.3,286047000.7,N
1650578715.1,286046998.2,N
1650578735.8,286047000.0,N
1650578755.7,286046998.8,N
1650578775.5,286046996.7,N
1650578795.4,286046997.0,N
1650578815.2,286046999.1,N
1650578835.0,286047000.6,N
1650578835.9,286047000.6,N
1650578855.8,286046999.7,N
1650578875.6,286047000.9,N
1650578895.5,286047000.7,N
1650578915.3,286046998.3,N
1650578935.1,286046999.6,N
1650578955.9,286046996.8,N
1650578975.7,286046996.7,N
1650578995.5,286046997.6,N
1650579015.4,286046997.5,N
1650579035.2,286046998.0,N
1650579055.1,286046997.3,N
1650579056.0,286046997.3,N
1650579075.8,286046995.5,Y
1650579095.6,286046996.8,P
1650579115.5,286046998.4,N
1650579135.3,286046998.2,N
1650579155.1,286047000.9,N
1650579175.9,286046998.1,N
1650579195.7,286046998.2,N
1650579215.6,286046998.2,N
1650579235.4,286047000.2,N
1650579255.2,286047001.8,N
1650579275.1,286047001.8,N
1650579276.0,286047001.8,N
1650579295.8,286047001.4,N
1650579315.6,286046999.7,N
1650579335.5,286046999.8,N
1650579355.3,286046999.7,N
1650579375.2,286047001.9,N
1650579395.9,286046999.7,N
1650579415.7,286046999.1,N
1650579435.6,286046996.8,N
1650579455.4,286046995.7,N
1650579475.2,286046995.1,N
1650579495.1,286046995.5,N
1650579496.0,286046995.5,N
1650579515.8,286046996.1,N
1650579535.7,286046995.8,N
1650579555.5,286046995.8,N
1650579575.3,286046995.5,N
1650579595.2,286046999.6,N
1650579615.0,286046997.1,N
1650579615.9,286046997.1,N
1650579635.7,286046997.7,N
1650579655.6,286046995.0,N
1650579675.4,286046995.5,N
1650579695.3,286046995.9,N
1650579715.1,286046995.7,N
1650579735.8,286046996.0,N
1650579755.7,286046993.4,N
1650579775.5,286046993.9,N
1650579795.4,286046994.8,N
1650579815.2,286046994.2,N
1650579835.0,286046994.0,N
1650579835.9,286046994.0,N
1650579855.8,286046993.7,N
1650579875.6,286046993.8,N
1650579895.4,286046993.8,Y
1650579915.3,286046997.2,P
1650579935.1,286046998.0,P
1650579955.9,286046995.1,P
1650579975.7,286046997.2,N
1650579995.5,286046997.6,N
1650580015.4,286046994.9,Y
1650580035.2,286046998.3,P
1650580055.0,286046998.4,N
1650580055.9,286046998.4,N
1650580075.8,286046999.0,N
1650580095.6,286046999.3,N
1650580115.5,286046996.6,Y
1650580135.3,286046998.8,P
1650580155.1,286046998.7,P
1650580175.9,286046998.6,P
1650580195.7,286046998.8,Y
1650580215.6,286047000.9,P
1650580235.4,286046998.6,N
1650580255.2,286046999.5,N
1650580275.1,286046996.8,Y
1650580276.0,286046996.8,P
1650580295.8,286046999.6,N
1650580315.7,286046996.9,N
1650580335.5,286046999.5,N
1650580355.3,286046998.8,N
1650580375.2,286047000.8,N
1650580395.0,286046996.8,N
1650580395.9,286046996.8,N
1650580415.7,286046999.6,N
1650580435.6,286046997.4,N
1650580455.4,286046997.0,N
1650580475.3,286046996.7,N
1650580495.1,286046996.8,N
1650580515.8,286046997.5,N
1650580535.7,286046995.3,Y
1650580555.5,286046996.7,P
1650580575.4,286046999.5,N
1650580595.2,286046996.5,P
1650580615.0,286046996.9,N
1650580615.9,286046996.9,N
1650580635.8,286046997.8,N
1650580655.6,286046996.8,Y
1650580675.5,286046999.1,P
1650580695.3,286046998.9,N
1650580715.1,286046998.9,N
1650580735.9,286046999.4,N
1650580755.7,286046996.8,Y
1650580775.6,286046999.0,P
1650580795.4,286046998.4,P
1650580815.2,286047000.8,P
1650580835.1,286046998.6,N
1650580836.0,286046998.6,N
1650580855.8,286046998.5,N
1650580875.6,286047001.2,N
1650580895.5,286046999.4,N
1650580915.3,286046996.5,Y
1650580935.2,286046998.5,P
1650580955.9,286046998.4,P
1650580975.7,286047000.9,N
1650580995.6,286047000.5,N
1650581015.4,286047001.1,N
1650581035.2,286047000.2,N
1650581055.1,286047000.1,N
1650581056.0,286047000.1,N
1650581075.8,286047000.0,N
1650581095.7,286047000.9,N
1650581115.5,286047001.1,N
1650581135.3,286047000.8,N
1650581155.2,286047000.8,N
1650581175.0,286047001.0,N
1650581175.9,286047001.0,N
1650581195.8,286047000.9,N
1650581215.6,286047000.4,N
1650581235.4,286046998.2,N
1650581255.3,286046998.1,N
1650581275.1,286046998.7,N
1650581295.9,286046998.4,N
1650581315.7,286046999.5,N
1650581335.5,286046998.1,N
1650581355.4,286046999.0,N
1650581375.2,286046996.9,N
1650581395.0,286046997.0,N
1650581395.9,286046997.0,N
1650581415.8,286046996.7,N
1650581435.6,286046996.6,N
1650581455.5,286046997.1,N
1650581475.3,286046995.2,Y
1650581495.1,286046996.6,P
1650581515.9,286046997.0,N
1650581535.7,286046996.6,N
1650581555.6,286046997.4,N
1650581575.4,286046997.8,N
1650581595.2,286046997.4,N
1650581615.1,286046997.8,N
1650581616.0,286046997.8,N
1650581635.8,286046997.1,Y
1650581655.7,286047001.0,P
1650581675.5,286047000.7,N
1650581695.3,286046998.1,N
1650581715.2,286046998.2,N
1650581735.0,286047000.5,N
1650581735.9,286047000.5,N
1650581755.7,286047000.3,N
1650581775.6,286047000.0,N
1650581795.4,286047000.4,N
1650581815.3,286047000.1,N
1650581835.1,286047000.3,N
1650581836.0,286047000.3,N
1650581855.8,286046999.9,N
1650581875.7,286047000.7,N
1650581895.5,286046998.6,N
1650581915.4,286047000.5,N
1650581935.2,286047000.1,N
1650581955.0,286047002.5,N
1650581955.9,286047002.5,N
1650581975.8,286047000.2,N
1650581995.6,286047000.2,N
